| time (UTC) | temp F | wind direction | speed MPH | gust MPH | rain 1hr in | rain 24hr in | rain mn in | humidity % | barometer mb |
| 20260904101526 | 65 | 273 | 0.0 | 3.0 | 0.00 | 0.03 | 0.00 | 96 | 1008.6 |
| 20260904101244 | 65 | 273 | 0.0 | 3.0 | 0.00 | 0.03 | 0.00 | 96 | 1008.6 |
| 20260904100523 | 65 | 230 | 0.0 | 0.0 | 0.00 | 0.03 | 0.00 | 96 | 1008.5 |
| 20260904100021 | 65 | 224 | 0.0 | 0.0 | 0.00 | 0.03 | 0.00 | 96 | 1008.5 |
| 20260904095527 | 65 | 224 | 0.0 | 0.0 | 0.00 | 0.03 | 0.00 | 96 | 1008.4 |
| 20260904095021 | 65 | 221 | 0.0 | 0.0 | 0.00 | 0.06 | 0.00 | 96 | 1008.4 |
| 20260904094521 | 65 | 221 | 0.0 | 0.0 | 0.00 | 0.08 | 0.00 | 96 | 1008.4 |
| 20260904094021 | 65 | 221 | 0.0 | 0.0 | 0.00 | 0.09 | 0.00 | 96 | 1008.4 |
| 20260904093521 | 65 | 220 | 0.0 | 0.0 | 0.00 | 0.10 | 0.00 | 96 | 1008.3 |
| 20260904093020 | 65 | 220 | 0.0 | 0.0 | 0.00 | 0.11 | 0.00 | 96 | 1008.4 |
| 20260904092518 | 65 | 220 | 0.0 | 0.0 | 0.00 | 0.11 | 0.00 | 96 | 1008.4 |
| 20260904092017 | 65 | 220 | 0.0 | 0.0 | 0.00 | 0.11 | 0.00 | 96 | 1008.3 |
| 20260904091511 | 65 | 220 | 0.0 | 0.0 | 0.00 | 0.11 | 0.00 | 96 | 1008.4 |
| 20260904091011 | 65 | 220 | 0.0 | 0.0 | 0.00 | 0.11 | 0.00 | 96 | 1008.4 |
| 20260904090501 | 65 | 220 | 0.0 | 0.0 | 0.00 | 0.11 | 0.00 | 96 | 1008.4 |
| 20260904085953 | 65 | 220 | 0.0 | 0.0 | 0.00 | 0.11 | 0.00 | 96 | 1008.4 |
| 20260904085447 | 65 | 219 | 0.0 | 0.0 | 0.00 | 0.11 | 0.00 | 96 | 1008.4 |
| 20260904084941 | 65 | 215 | 0.0 | 0.0 | 0.00 | 0.11 | 0.00 | 96 | 1008.4 |
| 20260904084435 | 65 | 215 | 0.0 | 0.0 | 0.00 | 0.11 | 0.00 | 96 | 1008.4 |
| 20260904083930 | 65 | 215 | 0.0 | 0.0 | 0.00 | 0.11 | 0.00 | 96 | 1008.5 |
| 20260904083423 | 64 | 215 | 0.0 | 0.0 | 0.00 | 0.11 | 0.00 | 96 | 1008.5 |
| 20260904082920 | 64 | 215 | 0.0 | 0.0 | 0.00 | 0.11 | 0.00 | 96 | 1008.5 |
| 20260904082413 | 64 | 215 | 0.0 | 0.0 | 0.00 | 0.11 | 0.00 | 96 | 1008.5 |
| 20260904081905 | 64 | 215 | 0.0 | 0.0 | 0.00 | 0.11 | 0.00 | 96 | 1008.5 |
| 20260904081841 | 64 | 215 | 0.0 | 0.0 | 0.00 | 0.11 | 0.00 | 96 | 1008.5 |
| 20260904080853 | 64 | 215 | 0.0 | 0.0 | 0.00 | 0.11 | 0.00 | 96 | 1008.5 |
| 20260904080347 | 64 | 215 | 0.0 | 0.0 | 0.00 | 0.11 | 0.00 | 96 | 1008.5 |
| 20260904075841 | 64 | 215 | 0.0 | 0.0 | 0.00 | 0.11 | 0.00 | 96 | 1008.6 |
| 20260904075603 | 64 | 215 | 0.0 | 0.0 | 0.00 | 0.11 | 0.00 | 96 | 1008.6 |
| 20260904075047 | 64 | 215 | 0.0 | 0.0 | 0.00 | 0.11 | 0.00 | 96 | 1008.6 |
| 20260904074324 | 64 | 215 | 0.0 | 0.0 | 0.00 | 0.11 | 0.00 | 96 | 1008.6 |
| 20260904074042 | 64 | 215 | 0.0 | 0.0 | 0.00 | 0.11 | 0.00 | 96 | 1008.8 |
| 20260904073311 | 64 | 215 | 0.0 | 0.0 | 0.00 | 0.11 | 0.00 | 96 | 1008.8 |
| 20260904072805 | 64 | 215 | 0.0 | 0.0 | 0.00 | 0.11 | 0.00 | 96 | 1008.7 |
| 20260904072300 | 64 | 215 | 0.0 | 0.0 | 0.00 | 0.11 | 0.00 | 96 | 1008.7 |
| 20260904071753 | 64 | 215 | 0.0 | 0.0 | 0.00 | 0.11 | 0.00 | 96 | 1008.7 |
| 20260904071253 | 64 | 215 | 0.0 | 0.0 | 0.00 | 0.11 | 0.00 | 96 | 1008.8 |
| 20260904070742 | 64 | 215 | 0.0 | 0.0 | 0.00 | 0.11 | 0.00 | 96 | 1009.0 |
| 20260904070235 | 64 | 215 | 0.0 | 0.0 | 0.00 | 0.11 | 0.00 | 96 | 1008.9 |
| 20260904065729 | 63 | 215 | 0.0 | 0.0 | 0.00 | 0.11 | 0.00 | 96 | 1009.0 |
| 20260904065224 | 63 | 215 | 0.0 | 0.0 | 0.00 | 0.11 | 0.00 | 96 | 1009.0 |
| 20260904064717 | 63 | 215 | 0.0 | 0.0 | 0.00 | 0.11 | 0.00 | 96 | 1009.1 |
| 20260904064212 | 63 | 215 | 0.0 | 0.0 | 0.00 | 0.11 | 0.00 | 96 | 1009.1 |
| 20260904063706 | 63 | 215 | 0.0 | 0.0 | 0.00 | 0.11 | 0.00 | 96 | 1009.3 |
| 20260904063159 | 63 | 215 | 0.0 | 0.0 | 0.00 | 0.11 | 0.00 | 96 | 1009.2 |
| 20260904062653 | 63 | 215 | 0.0 | 0.0 | 0.00 | 0.11 | 0.00 | 96 | 1009.4 |
| 20260904062149 | 63 | 215 | 0.0 | 0.0 | 0.00 | 0.11 | 0.00 | 96 | 1009.5 |
| 20260904061643 | 63 | 215 | 0.0 | 0.0 | 0.00 | 0.11 | 0.00 | 96 | 1009.5 |
| 20260904061135 | 63 | 215 | 0.0 | 0.0 | 0.00 | 0.11 | 0.00 | 96 | 1009.6 |
| 20260904060629 | 63 | 215 | 0.0 | 0.0 | 0.00 | 0.11 | 0.00 | 96 | 1009.6 |
| 20260904060123 | 63 | 215 | 0.0 | 0.0 | 0.00 | 0.11 | 0.00 | 96 | 1009.6 |
| 20260904055617 | 63 | 215 | 0.0 | 0.0 | 0.00 | 0.11 | 0.00 | 96 | 1009.7 |
| 20260904055112 | 63 | 215 | 0.0 | 0.0 | 0.00 | 0.11 | 0.00 | 96 | 1009.7 |
| 20260904054605 | 63 | 215 | 0.0 | 0.0 | 0.00 | 0.11 | 0.00 | 96 | 1009.8 |
| 20260904054101 | 63 | 215 | 0.0 | 0.0 | 0.00 | 0.11 | 0.00 | 96 | 1009.8 |
| 20260904053555 | 63 | 215 | 0.0 | 0.0 | 0.00 | 0.11 | 0.00 | 96 | 1009.8 |
| 20260904053309 | 63 | 215 | 0.0 | 0.0 | 0.00 | 0.11 | 0.00 | 96 | 1009.8 |
| 20260904052804 | 63 | 215 | 0.0 | 0.0 | 0.00 | 0.11 | 0.00 | 96 | 1009.9 |
| 20260904052301 | 63 | 215 | 0.0 | 0.0 | 0.00 | 0.11 | 0.00 | 96 | 1010.0 |
| 20260904051531 | 63 | 213 | 0.0 | 0.0 | 0.00 | 0.11 | 0.00 | 96 | 1010.1 |
| 20260904051023 | 63 | 213 | 0.0 | 0.0 | 0.00 | 0.11 | 0.00 | 96 | 1010.1 |
| 20260904050524 | 63 | 213 | 0.0 | 0.0 | 0.00 | 0.11 | 0.00 | 96 | 1010.1 |
| 20260904050021 | 63 | 213 | 0.0 | 0.0 | 0.00 | 0.11 | 0.00 | 95 | 1010.1 |
| 20260904045520 | 62 | 213 | 0.0 | 0.0 | 0.00 | 0.11 | 0.00 | 95 | 1010.3 |
| 20260904045241 | 63 | 213 | 0.0 | 0.0 | 0.00 | 0.11 | 0.00 | 95 | 1010.2 |
| 20260904044747 | 63 | 213 | 0.0 | 0.0 | 0.00 | 0.11 | 0.00 | 95 | 1010.2 |
| 20260904044017 | 63 | 213 | 0.0 | 0.0 | 0.00 | 0.11 | 0.00 | 95 | 1010.1 |
| 20260904043518 | 63 | 213 | 0.0 | 0.0 | 0.00 | 0.11 | 0.00 | 95 | 1010.2 |
| 20260904043019 | 63 | 213 | 0.0 | 0.0 | 0.00 | 0.11 | 0.00 | 95 | 1010.1 |
| 20260904042516 | 63 | 213 | 0.0 | 0.0 | 0.00 | 0.11 | 0.00 | 95 | 1010.3 |
| 20260904042014 | 63 | 213 | 0.0 | 0.0 | 0.00 | 0.11 | 0.00 | 95 | 1010.4 |
| 20260904041737 | 63 | 213 | 0.0 | 0.0 | 0.00 | 0.11 | 0.00 | 95 | 1010.3 |
| 20260904041235 | 63 | 213 | 0.0 | 0.0 | 0.00 | 0.11 | 0.00 | 95 | 1010.4 |
| 20260904040511 | 63 | 213 | 0.0 | 0.0 | 0.00 | 0.11 | 0.00 | 95 | 1010.3 |
| 20260904040011 | 63 | 213 | 0.0 | 0.0 | 0.00 | 0.11 | 0.00 | 95 | 1010.3 |
| 20260904035512 | 63 | 213 | 0.0 | 0.0 | 0.00 | 0.11 | 0.11 | 95 | 1010.3 |
| 20260904035010 | 64 | 213 | 0.0 | 0.0 | 0.00 | 0.11 | 0.11 | 95 | 1010.4 |
| 20260904034508 | 64 | 213 | 0.0 | 0.0 | 0.00 | 0.11 | 0.11 | 95 | 1010.3 |
| 20260904034006 | 64 | 213 | 0.0 | 2.0 | 0.00 | 0.11 | 0.11 | 95 | 1010.4 |
| 20260904033505 | 64 | 211 | 0.0 | 2.0 | 0.00 | 0.11 | 0.11 | 95 | 1010.3 |
| 20260904033005 | 64 | 54 | 0.0 | 0.0 | 0.00 | 0.11 | 0.11 | 95 | 1010.3 |
| 20260904032935 | 64 | 31 | 0.0 | 0.0 | 0.00 | 0.11 | 0.11 | 95 | 1010.4 |
| 20260904031953 | 64 | 31 | 0.0 | 0.0 | 0.00 | 0.11 | 0.11 | 95 | 1010.3 |
| 20260904031448 | 64 | 31 | 0.0 | 0.0 | 0.00 | 0.11 | 0.11 | 95 | 1010.4 |
| 20260904030941 | 64 | 31 | 0.0 | 0.0 | 0.00 | 0.11 | 0.11 | 95 | 1010.6 |
| 20260904030434 | 64 | 31 | 0.0 | 0.0 | 0.00 | 0.11 | 0.11 | 95 | 1010.6 |
| 20260904025928 | 64 | 31 | 0.0 | 0.0 | 0.00 | 0.11 | 0.11 | 95 | 1010.7 |
| 20260904025422 | 64 | 31 | 0.0 | 0.0 | 0.00 | 0.11 | 0.11 | 95 | 1011.0 |
| 20260904024916 | 64 | 31 | 0.0 | 0.0 | 0.00 | 0.11 | 0.11 | 95 | 1011.1 |
| 20260904024416 | 64 | 31 | 0.0 | 0.0 | 0.00 | 0.11 | 0.11 | 95 | 1011.1 |
| 20260904023913 | 64 | 31 | 0.0 | 0.0 | 0.00 | 0.11 | 0.11 | 95 | 1011.1 |
| 20260904023631 | 64 | 31 | 0.0 | 0.0 | 0.00 | 0.11 | 0.11 | 95 | 1011.1 |
| 20260904022913 | 64 | 31 | 0.0 | 0.0 | 0.00 | 0.11 | 0.11 | 95 | 1010.9 |
| 20260904022412 | 64 | 31 | 0.0 | 0.0 | 0.00 | 0.11 | 0.11 | 95 | 1011.1 |
| 20260904022130 | 64 | 31 | 0.0 | 0.0 | 0.00 | 0.11 | 0.11 | 95 | 1011.1 |
| 20260904021407 | 64 | 31 | 0.0 | 0.0 | 0.00 | 0.11 | 0.11 | 95 | 1011.1 |
| 20260904020907 | 64 | 31 | 0.0 | 0.0 | 0.00 | 0.11 | 0.11 | 95 | 1011.2 |
| 20260904020407 | 64 | 31 | 0.0 | 0.0 | 0.00 | 0.11 | 0.11 | 95 | 1011.1 |
| 20260904015908 | 64 | 31 | 0.0 | 0.0 | 0.00 | 0.11 | 0.11 | 95 | 1011.2 |
| 20260904015408 | 64 | 31 | 0.0 | 0.0 | 0.00 | 0.11 | 0.11 | 95 | 1011.3 |
| 20260904014907 | 64 | 31 | 0.0 | 0.0 | 0.00 | 0.11 | 0.11 | 95 | 1011.4 |
| 20260904014124 | 64 | 31 | 0.0 | 0.0 | 0.00 | 0.11 | 0.11 | 95 | 1011.3 |
| 20260904013630 | 64 | 31 | 0.0 | 0.0 | 0.00 | 0.11 | 0.11 | 95 | 1011.5 |
| 20260904012907 | 64 | 31 | 0.0 | 0.0 | 0.00 | 0.11 | 0.11 | 95 | 1011.5 |
| 20260904012407 | 64 | 31 | 0.0 | 0.0 | 0.00 | 0.11 | 0.11 | 95 | 1011.5 |
| 20260904011929 | 64 | 31 | 0.0 | 0.0 | 0.00 | 0.11 | 0.11 | 95 | 1011.5 |
| 20260904011407 | 64 | 31 | 0.0 | 0.0 | 0.00 | 0.11 | 0.11 | 95 | 1011.5 |
| 20260904010908 | 64 | 31 | 0.0 | 0.0 | 0.00 | 0.11 | 0.11 | 95 | 1011.6 |
| 20260904010632 | 64 | 31 | 0.0 | 0.0 | 0.00 | 0.11 | 0.11 | 95 | 1011.5 |
| 20260904005906 | 64 | 31 | 0.0 | 0.0 | 0.00 | 0.11 | 0.11 | 95 | 1011.4 |
| 20260904005622 | 64 | 31 | 0.0 | 0.0 | 0.00 | 0.11 | 0.11 | 95 | 1011.4 |
| 20260904004907 | 63 | 31 | 0.0 | 0.0 | 0.00 | 0.11 | 0.11 | 95 | 1011.2 |
| 20260904004405 | 63 | 31 | 0.0 | 0.0 | 0.00 | 0.11 | 0.11 | 95 | 1011.3 |
| 20260904003905 | 63 | 31 | 0.0 | 0.0 | 0.00 | 0.11 | 0.11 | 95 | 1011.2 |
| 20260904003405 | 63 | 31 | 0.0 | 0.0 | 0.00 | 0.11 | 0.11 | 95 | 1011.2 |
| 20260904002905 | 63 | 31 | 0.0 | 0.0 | 0.00 | 0.11 | 0.11 | 95 | 1010.9 |
| 20260904002406 | 63 | 31 | 0.0 | 0.0 | 0.00 | 0.11 | 0.11 | 95 | 1011.1 |
| 20260904001906 | 63 | 31 | 0.0 | 0.0 | 0.00 | 0.11 | 0.11 | 95 | 1011.2 |
| 20260904001405 | 63 | 31 | 0.0 | 0.0 | 0.00 | 0.11 | 0.11 | 95 | 1011.2 |
| 20260904000901 | 63 | 31 | 0.0 | 0.0 | 0.00 | 0.11 | 0.11 | 95 | 1011.2 |
| 20260904000403 | 63 | 31 | 0.0 | 0.0 | 0.00 | 0.11 | 0.11 | 95 | 1011.0 |
| 20260903235902 | 63 | 31 | 0.0 | 0.0 | 0.00 | 0.11 | 0.11 | 95 | 1010.8 |
| 20260903235401 | 63 | 31 | 0.0 | 0.0 | 0.00 | 0.11 | 0.11 | 95 | 1010.9 |
| 20260903234901 | 63 | 31 | 0.0 | 0.0 | 0.00 | 0.11 | 0.11 | 95 | 1010.8 |
| 20260903234401 | 63 | 31 | 0.0 | 0.0 | 0.00 | 0.11 | 0.11 | 95 | 1010.8 |
| 20260903233901 | 63 | 31 | 0.0 | 0.0 | 0.00 | 0.11 | 0.11 | 95 | 1010.9 |
| 20260903233622 | 63 | 31 | 0.0 | 0.0 | 0.00 | 0.11 | 0.11 | 95 | 1011.0 |
| 20260903232902 | 63 | 31 | 0.0 | 0.0 | 0.00 | 0.11 | 0.11 | 95 | 1011.1 |
| 20260903232358 | 63 | 31 | 0.0 | 0.0 | 0.00 | 0.11 | 0.11 | 95 | 1011.1 |
| 20260903231859 | 63 | 31 | 0.0 | 0.0 | 0.00 | 0.11 | 0.11 | 95 | 1011.2 |
| 20260903231617 | 63 | 31 | 0.0 | 0.0 | 0.00 | 0.11 | 0.11 | 95 | 1011.3 |
| 20260903230857 | 63 | 31 | 0.0 | 0.0 | 0.00 | 0.11 | 0.11 | 95 | 1011.2 |
| 20260903230357 | 63 | 31 | 0.0 | 0.0 | 0.00 | 0.11 | 0.11 | 95 | 1011.2 |
| 20260903225857 | 63 | 31 | 0.0 | 0.0 | 0.00 | 0.11 | 0.11 | 95 | 1011.2 |
| 20260903225357 | 63 | 31 | 0.0 | 0.0 | 0.00 | 0.11 | 0.11 | 95 | 1011.1 |
| 20260903224856 | 64 | 31 | 0.0 | 0.0 | 0.00 | 0.11 | 0.11 | 95 | 1011.2 |
| 20260903224616 | 64 | 31 | 0.0 | 0.0 | 0.00 | 0.11 | 0.11 | 95 | 1011.2 |
| 20260903223848 | 64 | 31 | 0.0 | 0.0 | 0.00 | 0.11 | 0.11 | 95 | 1011.3 |
| 20260903223342 | 64 | 31 | 0.0 | 0.0 | 0.00 | 0.11 | 0.11 | 95 | 1011.3 |
| 20260903222838 | 64 | 31 | 0.0 | 0.0 | 0.00 | 0.11 | 0.11 | 95 | 1011.3 |
| 20260903222330 | 64 | 31 | 0.0 | 0.0 | 0.00 | 0.11 | 0.11 | 95 | 1011.3 |
| 20260903221825 | 64 | 31 | 0.0 | 0.0 | 0.00 | 0.11 | 0.11 | 95 | 1011.3 |
| 20260903221318 | 64 | 31 | 0.0 | 0.0 | 0.00 | 0.11 | 0.11 | 95 | 1011.4 |
| 20260903220814 | 64 | 31 | 0.0 | 0.0 | 0.00 | 0.11 | 0.11 | 95 | 1011.5 |
| 20260903220529 | 64 | 31 | 0.0 | 0.0 | 0.00 | 0.11 | 0.11 | 95 | 1011.5 |
| 20260903215800 | 64 | 31 | 0.0 | 0.0 | 0.00 | 0.11 | 0.11 | 95 | 1011.5 |
| 20260903215256 | 64 | 31 | 0.0 | 0.0 | 0.00 | 0.11 | 0.11 | 95 | 1011.4 |
| 20260903215015 | 64 | 31 | 0.0 | 0.0 | 0.00 | 0.11 | 0.11 | 95 | 1011.3 |
| 20260903214242 | 64 | 31 | 0.0 | 0.0 | 0.00 | 0.11 | 0.11 | 95 | 1011.4 |
| 20260903213736 | 64 | 31 | 0.0 | 0.0 | 0.00 | 0.11 | 0.11 | 95 | 1011.4 |
| 20260903213230 | 64 | 31 | 0.0 | 0.0 | 0.00 | 0.11 | 0.11 | 95 | 1011.4 |
| 20260903212725 | 64 | 31 | 0.0 | 0.0 | 0.00 | 0.11 | 0.11 | 95 | 1011.4 |
| 20260903212219 | 64 | 31 | 0.0 | 0.0 | 0.00 | 0.11 | 0.11 | 95 | 1011.5 |
| 20260903211941 | 64 | 31 | 0.0 | 0.0 | 0.00 | 0.11 | 0.11 | 95 | 1011.5 |
| 20260903211207 | 63 | 31 | 0.0 | 0.0 | 0.00 | 0.11 | 0.11 | 95 | 1011.5 |
| 20260903210700 | 63 | 31 | 0.0 | 0.0 | 0.00 | 0.11 | 0.11 | 95 | 1011.5 |
| 20260903210425 | 63 | 31 | 0.0 | 0.0 | 0.00 | 0.11 | 0.11 | 95 | 1011.3 |
| 20260903205648 | 64 | 31 | 0.0 | 0.0 | 0.00 | 0.11 | 0.11 | 95 | 1011.3 |
| 20260903205143 | 64 | 31 | 0.0 | 0.0 | 0.00 | 0.11 | 0.11 | 95 | 1011.3 |
| 20260903204637 | 63 | 31 | 0.0 | 0.0 | 0.00 | 0.11 | 0.11 | 95 | 1011.5 |
| 20260903204129 | 63 | 31 | 0.0 | 0.0 | 0.00 | 0.11 | 0.11 | 95 | 1011.7 |
| 20260903203851 | 63 | 31 | 0.0 | 0.0 | 0.00 | 0.11 | 0.11 | 95 | 1011.6 |
| 20260903203129 | 63 | 30 | 0.0 | 0.0 | 0.00 | 0.11 | 0.11 | 95 | 1011.7 |
| 20260903202628 | 63 | 31 | 0.0 | 0.0 | 0.00 | 0.11 | 0.11 | 95 | 1011.7 |
| 20260903202127 | 63 | 31 | 0.0 | 0.0 | 0.00 | 0.11 | 0.11 | 95 | 1011.7 |
| 20260903201625 | 63 | 30 | 0.0 | 0.0 | 0.00 | 0.11 | 0.11 | 95 | 1011.7 |
| 20260903201125 | 63 | 30 | 0.0 | 0.0 | 0.00 | 0.11 | 0.11 | 95 | 1011.6 |
| 20260903200624 | 63 | 30 | 0.0 | 0.0 | 0.00 | 0.11 | 0.11 | 95 | 1011.7 |
| 20260903200121 | 63 | 30 | 0.0 | 0.0 | 0.00 | 0.11 | 0.11 | 95 | 1011.7 |
| 20260903195621 | 64 | 29 | 0.0 | 0.0 | 0.00 | 0.11 | 0.11 | 95 | 1011.7 |
| 20260903195121 | 64 | 29 | 0.0 | 0.0 | 0.00 | 0.11 | 0.11 | 95 | 1011.7 |
| 20260903194621 | 64 | 29 | 0.0 | 0.0 | 0.00 | 0.11 | 0.11 | 95 | 1011.8 |
| 20260903194121 | 63 | 29 | 0.0 | 0.0 | 0.00 | 0.11 | 0.11 | 95 | 1011.8 |
| 20260903193619 | 63 | 29 | 0.0 | 0.0 | 0.00 | 0.11 | 0.11 | 95 | 1011.8 |
| 20260903193117 | 64 | 28 | 0.0 | 0.0 | 0.00 | 0.11 | 0.11 | 95 | 1011.9 |
| 20260903192617 | 63 | 30 | 0.0 | 0.0 | 0.00 | 0.11 | 0.11 | 95 | 1012.0 |
| 20260903192117 | 63 | 30 | 0.0 | 0.0 | 0.00 | 0.11 | 0.11 | 95 | 1012.1 |
| 20260903191615 | 63 | 30 | 0.0 | 1.0 | 0.00 | 0.11 | 0.11 | 95 | 1012.1 |
| 20260903191113 | 63 | 30 | 0.0 | 1.0 | 0.00 | 0.11 | 0.11 | 95 | 1012.1 |
| 20260903190613 | 63 | 30 | 0.0 | 0.0 | 0.00 | 0.11 | 0.11 | 95 | 1012.3 |
| 20260903190107 | 63 | 30 | 0.0 | 0.0 | 0.00 | 0.11 | 0.11 | 95 | 1012.3 |
| 20260903185601 | 63 | 30 | 0.0 | 0.0 | 0.00 | 0.11 | 0.11 | 95 | 1012.4 |
| 20260903185054 | 63 | 30 | 0.0 | 0.0 | 0.00 | 0.11 | 0.11 | 95 | 1012.4 |
| 20260903184549 | 64 | 30 | 0.0 | 2.0 | 0.00 | 0.11 | 0.11 | 95 | 1012.4 |
| 20260903184042 | 64 | 27 | 0.0 | 2.0 | 0.00 | 0.11 | 0.11 | 95 | 1012.5 |
| 20260903183536 | 64 | 32 | 0.0 | 0.0 | 0.00 | 0.11 | 0.11 | 94 | 1012.7 |
| 20260903183030 | 64 | 32 | 0.0 | 2.0 | 0.00 | 0.11 | 0.11 | 95 | 1012.8 |
| 20260903182524 | 64 | 32 | 0.0 | 2.0 | 0.00 | 0.11 | 0.11 | 94 | 1012.7 |
| 20260903182018 | 64 | 56 | 0.0 | 0.0 | 0.00 | 0.11 | 0.11 | 94 | 1012.7 |
| 20260903181512 | 64 | 56 | 0.0 | 0.0 | 0.00 | 0.11 | 0.11 | 94 | 1012.7 |
| 20260903181007 | 64 | 57 | 0.0 | 0.0 | 0.00 | 0.11 | 0.11 | 94 | 1012.8 |
| 20260903180459 | 64 | 57 | 0.0 | 0.0 | 0.00 | 0.11 | 0.11 | 94 | 1012.8 |
| 20260903175953 | 64 | 57 | 0.0 | 0.0 | 0.00 | 0.11 | 0.11 | 94 | 1012.8 |
| 20260903175446 | 64 | 57 | 0.0 | 0.0 | 0.00 | 0.11 | 0.11 | 94 | 1012.7 |
| 20260903175203 | 64 | 57 | 0.0 | 0.0 | 0.00 | 0.11 | 0.11 | 94 | 1012.7 |
| 20260903174436 | 64 | 57 | 0.0 | 3.0 | 0.00 | 0.11 | 0.11 | 94 | 1012.8 |
| 20260903173929 | 64 | 57 | 0.0 | 3.0 | 0.00 | 0.11 | 0.11 | 94 | 1012.6 |
| 20260903173423 | 64 | 178 | 0.0 | 0.0 | 0.00 | 0.11 | 0.11 | 94 | 1012.5 |
| 20260903172916 | 64 | 178 | 0.0 | 0.0 | 0.00 | 0.11 | 0.11 | 94 | 1012.9 |
| 20260903172410 | 64 | 178 | 0.0 | 3.0 | 0.00 | 0.11 | 0.11 | 94 | 1013.0 |
| 20260903171904 | 64 | 186 | 0.0 | 3.0 | 0.00 | 0.11 | 0.11 | 94 | 1013.0 |
| 20260903171358 | 64 | 115 | 0.0 | 0.0 | 0.00 | 0.11 | 0.11 | 94 | 1012.8 |
| 20260903170853 | 64 | 115 | 0.0 | 0.0 | 0.00 | 0.11 | 0.11 | 95 | 1012.8 |
| 20260903170347 | 64 | 115 | 0.0 | 3.0 | 0.00 | 0.11 | 0.11 | 95 | 1012.8 |
| 20260903165840 | 64 | 115 | 0.0 | 3.0 | 0.00 | 0.11 | 0.11 | 95 | 1012.8 |
| 20260903165334 | 64 | 109 | 0.0 | 3.0 | 0.00 | 0.11 | 0.11 | 95 | 1012.8 |
| 20260903164837 | 64 | 109 | 0.0 | 4.0 | 0.00 | 0.11 | 0.11 | 95 | 1012.8 |
| 20260903164335 | 64 | 172 | 0.0 | 4.0 | 0.00 | 0.11 | 0.11 | 95 | 1012.9 |
| 20260903163835 | 64 | 123 | 0.0 | 1.0 | 0.00 | 0.11 | 0.11 | 95 | 1013.2 |
| 20260903163335 | 64 | 121 | 0.0 | 2.0 | 0.00 | 0.11 | 0.11 | 95 | 1013.2 |
| 20260903163052 | 64 | 120 | 0.0 | 2.0 | 0.00 | 0.11 | 0.11 | 95 | 1012.9 |
| 20260903162333 | 64 | 121 | 0.0 | 0.0 | 0.00 | 0.11 | 0.11 | 95 | 1013.0 |
| 20260903162057 | 64 | 138 | 0.0 | 0.0 | 0.00 | 0.11 | 0.11 | 95 | 1013.2 |
| 20260903161331 | 64 | 138 | 0.0 | 0.0 | 0.00 | 0.11 | 0.11 | 95 | 1013.2 |
| 20260903160829 | 64 | 138 | 0.0 | 2.0 | 0.00 | 0.11 | 0.11 | 95 | 1013.1 |
| 20260903160547 | 64 | 146 | 0.0 | 4.0 | 0.00 | 0.11 | 0.11 | 95 | 1013.3 |
| 20260903155829 | 64 | 142 | 0.0 | 5.0 | 0.00 | 0.11 | 0.11 | 95 | 1013.3 |
| 20260903155329 | 64 | 164 | 1.0 | 5.0 | 0.00 | 0.11 | 0.11 | 95 | 1013.3 |
| 20260903154826 | 64 | 142 | 1.0 | 11.0 | 0.00 | 0.11 | 0.11 | 95 | 1013.4 |
| 20260903154327 | 64 | 153 | 2.0 | 11.0 | 0.00 | 0.11 | 0.11 | 95 | 1013.5 |
| 20260903153824 | 64 | 148 | 1.0 | 9.0 | 0.00 | 0.11 | 0.11 | 95 | 1013.5 |
| 20260903153325 | 64 | 186 | 0.0 | 8.0 | 0.00 | 0.11 | 0.11 | 96 | 1013.7 |
| 20260903152823 | 64 | 180 | 0.0 | 4.0 | 0.00 | 0.11 | 0.11 | 96 | 1013.7 |
| 20260903152321 | 63 | 157 | 1.0 | 8.0 | 0.00 | 0.11 | 0.11 | 95 | 1013.8 |
| 20260903151820 | 63 | 147 | 1.0 | 8.0 | 0.00 | 0.11 | 0.11 | 96 | 1013.8 |
| 20260903151319 | 63 | 172 | 1.0 | 6.0 | 0.00 | 0.11 | 0.11 | 95 | 1014.0 |
| 20260903151043 | 63 | 179 | 0.0 | 5.0 | 0.00 | 0.11 | 0.11 | 95 | 1014.0 |
| 20260903150320 | 63 | 170 | 1.0 | 10.0 | 0.00 | 0.11 | 0.11 | 95 | 1014.1 |
| 20260903150302 | 63 | 170 | 1.0 | 10.0 | 0.00 | 0.11 | 0.11 | 95 | 1014.2 |
| 20260903145316 | 63 | 193 | 0.0 | 0.0 | 0.00 | 0.11 | 0.11 | 95 | 1014.3 |
| 20260903144819 | 63 | 193 | 0.0 | 0.0 | 0.00 | 0.11 | 0.11 | 95 | 1014.3 |
| 20260903144537 | 63 | 193 | 0.0 | 0.0 | 0.01 | 0.11 | 0.11 | 95 | 1014.3 |
| 20260903143819 | 63 | 193 | 0.0 | 0.0 | 0.01 | 0.11 | 0.11 | 95 | 1014.3 |
| 20260903143313 | 63 | 193 | 0.0 | 0.0 | 0.01 | 0.11 | 0.11 | 95 | 1014.3 |
| 20260903142812 | 63 | 193 | 0.0 | 0.0 | 0.01 | 0.11 | 0.11 | 95 | 1014.4 |
| 20260903142310 | 63 | 193 | 0.0 | 0.0 | 0.01 | 0.11 | 0.11 | 95 | 1014.3 |
| 20260903141810 | 63 | 193 | 0.0 | 0.0 | 0.01 | 0.11 | 0.11 | 95 | 1014.3 |
| 20260903141308 | 63 | 193 | 0.0 | 0.0 | 0.01 | 0.11 | 0.11 | 95 | 1014.3 |
| 20260903141027 | 63 | 193 | 0.0 | 0.0 | 0.01 | 0.11 | 0.11 | 95 | 1014.3 |
| 20260903140304 | 62 | 193 | 0.0 | 0.0 | 0.01 | 0.11 | 0.11 | 95 | 1014.4 |
| 20260903135802 | 62 | 193 | 0.0 | 0.0 | 0.02 | 0.11 | 0.11 | 95 | 1014.5 |
| 20260903135527 | 62 | 193 | 0.0 | 0.0 | 0.02 | 0.11 | 0.11 | 95 | 1014.5 |
| 20260903134801 | 62 | 193 | 0.0 | 5.0 | 0.01 | 0.10 | 0.10 | 95 | 1014.5 |
| 20260903134301 | 62 | 193 | 0.0 | 5.0 | 0.01 | 0.10 | 0.10 | 95 | 1014.5 |
| 20260903133800 | 62 | 180 | 0.0 | 0.0 | 0.01 | 0.10 | 0.10 | 95 | 1014.4 |
| 20260903133300 | 62 | 180 | 0.0 | 7.0 | 0.01 | 0.10 | 0.10 | 95 | 1014.4 |
| 20260903132757 | 62 | 180 | 0.0 | 7.0 | 0.01 | 0.10 | 0.10 | 95 | 1014.5 |
| 20260903132517 | 62 | 180 | 0.0 | 1.0 | 0.01 | 0.10 | 0.10 | 95 | 1014.5 |
| 20260903131756 | 62 | 180 | 0.0 | 5.0 | 0.01 | 0.10 | 0.10 | 95 | 1014.5 |
| 20260903131257 | 62 | 180 | 1.0 | 6.0 | 0.01 | 0.10 | 0.10 | 94 | 1014.6 |
| 20260903130756 | 62 | 175 | 0.0 | 6.0 | 0.01 | 0.10 | 0.10 | 94 | 1014.6 |
| 20260903130253 | 62 | 178 | 0.0 | 3.0 | 0.01 | 0.10 | 0.10 | 94 | 1014.6 |
| 20260903125753 | 62 | 182 | 0.0 | 3.0 | 0.00 | 0.09 | 0.09 | 94 | 1014.8 |
| 20260903125251 | 62 | 181 | 0.0 | 5.0 | 0.00 | 0.09 | 0.09 | 94 | 1014.8 |
| 20260903124751 | 62 | 180 | 0.0 | 5.0 | 0.00 | 0.09 | 0.09 | 94 | 1014.9 |
| 20260903124256 | 62 | 170 | 0.0 | 3.0 | 0.00 | 0.09 | 0.09 | 94 | 1015.0 |
| 20260903123748 | 62 | 176 | 0.0 | 3.0 | 0.00 | 0.09 | 0.09 | 94 | 1015.0 |
| 20260903123249 | 62 | 173 | 0.0 | 5.0 | 0.00 | 0.09 | 0.09 | 94 | 1015.1 |
| 20260903122953 | 62 | 171 | 1.0 | 6.0 | 0.00 | 0.09 | 0.09 | 94 | 1015.2 |
| 20260903122836 | 62 | 173 | 0.0 | 5.0 | 0.00 | 0.09 | 0.09 | 94 | 1015.2 |
| 20260903121748 | 62 | 175 | 1.0 | 6.0 | 0.00 | 0.09 | 0.09 | 94 | 1015.5 |
| 20260903120955 | 62 | 190 | 0.0 | 4.0 | 0.00 | 0.09 | 0.09 | 94 | 1015.5 |
| 20260903120455 | 62 | 192 | 0.0 | 3.0 | 0.00 | 0.09 | 0.09 | 94 | 1015.2 |
| 20260903115952 | 62 | 192 | 0.0 | 4.0 | 0.00 | 0.09 | 0.09 | 94 | 1015.2 |
| 20260903115450 | 62 | 197 | 0.0 | 4.0 | 0.00 | 0.09 | 0.09 | 94 | 1015.5 |
| 20260903114945 | 62 | 171 | 0.0 | 4.0 | 0.00 | 0.09 | 0.09 | 93 | 1015.4 |
| 20260903114438 | 62 | 163 | 0.0 | 4.0 | 0.00 | 0.09 | 0.09 | 93 | 1015.4 |
| 20260903113933 | 61 | 162 | 0.0 | 4.0 | 0.00 | 0.09 | 0.09 | 93 | 1015.4 |
| 20260903113427 | 61 | 153 | 1.0 | 5.0 | 0.00 | 0.09 | 0.09 | 93 | 1015.3 |
| 20260903112921 | 61 | 142 | 1.0 | 6.0 | 0.00 | 0.09 | 0.09 | 93 | 1015.4 |
| 20260903112415 | 61 | 196 | 1.0 | 6.0 | 0.01 | 0.09 | 0.09 | 93 | 1015.5 |
| 20260903111910 | 61 | 195 | 0.0 | 6.0 | 0.01 | 0.09 | 0.09 | 93 | 1015.4 |
| 20260903111402 | 62 | 159 | 0.0 | 1.0 | 0.01 | 0.09 | 0.09 | 93 | 1015.4 |
| 20260903110856 | 61 | 159 | 0.0 | 2.0 | 0.01 | 0.09 | 0.09 | 93 | 1015.4 |
| 20260903110352 | 62 | 154 | 0.0 | 2.0 | 0.01 | 0.09 | 0.09 | 93 | 1015.5 |
| 20260903105846 | 62 | 161 | 0.0 | 7.0 | 0.01 | 0.09 | 0.09 | 93 | 1015.6 |
| 20260903105339 | 62 | 161 | 1.0 | 7.0 | 0.02 | 0.09 | 0.09 | 93 | 1015.6 |
| 20260903105057 | 62 | 162 | 1.0 | 6.0 | 0.06 | 0.09 | 0.09 | 93 | 1015.5 |
| 20260903104553 | 62 | 179 | 1.0 | 6.0 | 0.07 | 0.09 | 0.09 | 93 | 1015.6 |
| 20260903103821 | 63 | 180 | 1.0 | 6.0 | 0.08 | 0.09 | 0.09 | 94 | 1015.8 |
| 20260903103314 | 63 | 191 | 0.0 | 4.0 | 0.08 | 0.09 | 0.09 | 94 | 1015.8 |
| 20260903102808 | 63 | 177 | 0.0 | 4.0 | 0.08 | 0.08 | 0.08 | 94 | 1015.7 |
| 20260903102305 | 63 | 174 | 0.0 | 0.0 | 0.08 | 0.08 | 0.08 | 94 | 1015.7 |